Powrót do katalogu

STARLINK-4212

AktywnyŁącznośćVLEO
NORAD 52846·PAYLOAD·🇺🇸 United States

Wystrzelony Jun 17, 2022 z Cape Canaveral Space Force Station

Loading…

Następne Przeloty (najbliższe 24 godziny)

TLE

ŚwieżeSource: CelesTrak SupGP

Epoka: Sep 14, 2026, 20:43 UTC

1 52846C 22062S   26257.86368056  .00048814  00000+0  15701-2 0  2578
2 52846  53.1582 255.3032 0001316  88.9120 322.1269 15.31670146    10

Śledź STARLINK-4212 w czasie rzeczywistym z AllMySat

Download on the App Store